Simultaneous Nadir Overpasses (SNOs) Predictions

Prediction of SNOs between GOES-15 and METOP-A Satellite Orbit:

Table of predicted SNOs for the next 14.0 days since TLE Epoch: 11/5/2011
Index Date Time (GOES-15) GOES-15 Lat,Lon METOP-A Lat,Lon Distance(km) Time Diff (sec)
1 11/06/2011 16:15:22 -0.24,-105.47 -1.00,-102.16 378.58 80
2 11/08/2011 04:37:06 0.23,-106.58 0.16,-106.79 24.97 80
3 11/09/2011 16:56:04 -0.23,-107.94 0.56,-111.42 396.43 80
4 11/10/2011 16:32:49 -0.23,-108.72 -0.73,-106.46 257.51 80
5 11/12/2011 04:54:34 0.22,-109.81 -0.05,-111.11 148.01 80
6 11/14/2011 16:50:16 -0.21,-111.96 -0.46,-110.77 135.54 80
7 11/16/2011 05:12:00 0.20,-113.02 -0.36,-115.41 272.06 80
8 11/17/2011 04:48:46 0.21,-113.82 0.99,-110.47 383.54 80
9 11/18/2011 17:07:43 -0.20,-115.19 -0.21,-115.08 12.80 80




NCC Satellite Simultaneous Nadir Overpasses (SNOs) Prediction Service
